Location: Unspecified
(50.1700°N, 6.8600°E)
Time: 08:24:29
(UTC+00:00)

ATLAS CENTAUR R/B - Pass Details

Date: 24 January 2019
Orbit: 225 x 6583 km, 57.3° (Epoch: 20 April)

Event Time Altitude Azimuth Distance (km) Brightness Sun altitude
Rises 06:26:39 0° 254° (WSW) 6,749 6.8 -8.2°
Reaches altitude 10° 06:32:37 10° 258° (WSW) 4,617 6.0 -7.3°
Maximum altitude 06:42:31 53° 334° (NNW) 1,117 3.1 -5.9°
Drops below altitude 10° 06:46:23 10° 53° (NE) 1,843 4.9 -5.3°
Sets 06:47:53 0° 59° (ENE) 2,454 5.7 -5.1°
